TimeEST,TemperatureF,Dew PointF,Humidity,Sea Level PressureIn,VisibilityMPH,Wind Direction,Wind SpeedMPH,Gust SpeedMPH,PrecipitationIn,Events,Conditions,WindDirDegrees,DateUTC
12:53 AM,62.1,55.0,78,30.26,10.0,North,4.6,-,N/A,,Scattered Clouds,350,2013-01-24 05:53:00
1:53 AM,61.0,55.0,81,30.25,10.0,Calm,Calm,-,N/A,,Scattered Clouds,0,2013-01-24 06:53:00
2:53 AM,61.0,54.0,78,30.24,10.0,North,3.5,-,N/A,,Scattered Clouds,360,2013-01-24 07:53:00
3:53 AM,61.0,55.0,81,30.24,10.0,North,3.5,-,N/A,,Scattered Clouds,350,2013-01-24 08:53:00
4:53 AM,60.1,54.0,80,30.24,10.0,NNW,3.5,-,N/A,,Scattered Clouds,340,2013-01-24 09:53:00
5:53 AM,60.1,54.0,80,30.23,10.0,North,3.5,-,N/A,,Scattered Clouds,350,2013-01-24 10:53:00
6:53 AM,60.1,54.0,80,30.25,10.0,North,5.8,-,N/A,,Partly Cloudy,350,2013-01-24 11:53:00
7:53 AM,62.1,54.0,75,30.28,10.0,North,4.6,-,N/A,,Scattered Clouds,350,2013-01-24 12:53:00
8:53 AM,64.9,52.0,63,30.30,10.0,NNW,6.9,-,N/A,,Scattered Clouds,330,2013-01-24 13:53:00
9:53 AM,69.1,52.0,54,30.31,10.0,NNW,4.6,-,N/A,,Mostly Cloudy,340,2013-01-24 14:53:00
10:53 AM,72.0,52.0,49,30.30,10.0,North,6.9,-,N/A,,Scattered Clouds,360,2013-01-24 15:53:00
11:53 AM,73.9,54.0,50,30.28,10.0,Variable,4.6,-,N/A,,Scattered Clouds,0,2013-01-24 16:53:00
12:53 PM,75.0,54.0,48,30.25,10.0,Variable,5.8,-,N/A,,Mostly Cloudy,0,2013-01-24 17:53:00
1:53 PM,73.9,52.0,46,30.23,10.0,NE,8.1,-,N/A,,Mostly Cloudy,50,2013-01-24 18:53:00
2:53 PM,75.9,55.0,48,30.21,10.0,Variable,3.5,-,N/A,,Mostly Cloudy,0,2013-01-24 19:53:00
3:53 PM,73.9,54.0,50,30.21,10.0,ENE,9.2,-,N/A,,Scattered Clouds,60,2013-01-24 20:53:00
4:53 PM,72.0,55.0,55,30.22,10.0,ENE,10.4,-,N/A,,Partly Cloudy,60,2013-01-24 21:53:00
5:53 PM,71.1,54.0,55,30.24,10.0,ENE,5.8,-,N/A,,Partly Cloudy,60,2013-01-24 22:53:00
6:53 PM,70.0,54.0,57,30.25,10.0,NE,6.9,-,N/A,,Partly Cloudy,50,2013-01-24 23:53:00
7:53 PM,69.1,54.0,58,30.25,10.0,NE,5.8,-,N/A,,Partly Cloudy,40,2013-01-25 00:53:00
8:53 PM,66.9,51.1,57,30.27,10.0,North,4.6,-,N/A,,Partly Cloudy,360,2013-01-25 01:53:00
9:53 PM,66.0,50.0,56,30.27,10.0,Variable,4.6,-,N/A,,Partly Cloudy,0,2013-01-25 02:53:00
10:53 PM,64.9,51.1,61,30.27,10.0,NNE,3.5,-,N/A,,Partly Cloudy,30,2013-01-25 03:53:00
11:53 PM,64.0,51.1,63,30.27,10.0,North,4.6,-,N/A,,Clear,350,2013-01-25 04:53:00